Simultaneous Nadir Overpasses (SNOs) Predictions

Prediction of SNOs near US between AQUA and NPP Satellite Orbit:

Table of predicted SNOs near US for the next 10.0 days since TLE Epoch: 1/30/2021
Index Date (AQUA) Time (AQUA) AQUA Lat,Lon Date (NPP) Time (NPP) NPP Lat,Lon Distance(km) Time Diff (sec)
1 01/30/2021 07:18:41 49.93, -75.97 01/30/2021 07:19:48 50.35, -78.18 163.92 67
2 01/30/2021 08:57:34 49.94,-100.69 01/30/2021 09:01:15 50.51,-103.47 208.34 221
3 02/01/2021 18:16:51 49.97, -80.19 02/01/2021 18:10:04 49.70, -81.73 114.78 407
4 02/01/2021 19:55:44 49.96,-104.91 02/01/2021 19:51:32 49.59,-107.06 160.02 252
5 02/01/2021 21:30:54 36.66,-124.99 02/01/2021 21:29:10 36.16,-127.54 235.00 104
6 02/04/2021 09:24:17 20.64,-114.10 02/04/2021 09:16:07 20.71,-114.56 49.25 490
7 02/07/2021 06:30:27 45.76, -65.25 02/07/2021 06:30:16 46.12, -67.28 161.28 11
8 02/07/2021 08:08:10 49.92, -88.34 02/07/2021 08:10:31 50.43, -90.83 186.08 141
9 02/07/2021 09:47:03 49.93,-113.06 02/07/2021 09:51:59 50.54,-116.15 230.45 296
